Location: Blythe
(33.2930°N, 82.2020°W)
Time: 11:55:50
(UTC-05:00)

Hubble Space Telescope - Visible Passes

Search period start: 28 November 2014 00:00
Search period end: 08 December 2014 00:00
Orbit: 546 x 549 km, 28.5° (Epoch: 27 November)

Date Brightness Start Highest point End Pass type
(mag) Time Alt. Az. Time Alt. Az. Time Alt. Az.
28 Nov 1.7 05:31:36 34° SW 05:32:23 37° S 05:36:16 10° ESE visible
29 Nov 1.8 05:24:32 33° SSW 05:24:48 33° S 05:28:35 10° SE visible
30 Nov 2.1 05:17:28 29° S 05:17:28 29° S 05:20:49 10° SE visible
01 Dec 2.6 05:10:24 23° S 05:10:24 23° S 05:12:59 10° SE visible
02 Dec 3.0 05:03:21 17° S 05:03:21 17° S 05:05:02 10° SSE visible
03 Dec 3.5 04:56:18 12° SSE 04:56:18 12° SSE 04:56:56 10° SSE visible
